Weather History for KHOT - February, 2013

Change the Weather History Date:

Tuesday, February 5, 2013

  Actual Average Record
Temperature  
Mean Temperature 55 °F -  
Max Temperature 66 °F 53 °F 73 °F (2008)
Min Temperature 41 °F 32 °F 11 °F (1989)
Degree Days  
Heating Degree Days 10    
Growing Degree Days 5 (Base 50)    
Moisture  
Dew Point 43 °F    
Average Humidity 84    
Maximum Humidity 100    
Minimum Humidity 32    
Precipitation  
Precipitation 0.00 in - - ()
Sea Level Pressure  
Sea Level Pressure 30.00 in    
Wind  
Wind Speed 2 mph (WNW)    
Max Wind Speed 5 mph    
Max Gust Speed -    
Visibility 4 miles    
Events Fog    
Averages and records for this station are not official NWS values.
T = Trace of Precipitation, MM = Missing Value Source: NWS Daily Summary

Daily Weather History Graph

Daily Weather History Graph

Search for Another Location

Airport or City:

Trip Planner

Search our weather history database for the weather conditions in past years. The results will help you decide how hot, cold, wet, or windy it might be!

Date:

Astronomy

Feb. 05, 2013 Rise Set
Actual Time 7:06 AM CST 5:46 PM CST
Civil Twilight 6:40 AM CST 6:12 PM CST
Nautical Twilight 6:10 AM CST 6:42 PM CST
Astronomical Twilight 5:41 AM CST 7:11 PM CST
Moon 2:44 AM CST (2/5) 1:09 PM CST (2/5)
Length of Visible Light 11h 31m
Length of Day
10h 39m
Waning Crescent, 26% of the Moon is Illuminated
Feb 5
Waning Crescent
Feb 10
New
Feb 17
First Quarter
Feb 25
Full
Mar 4
Last Quarter

Hourly Weather History & Observations

Time (CST) Temp. Windchill Dew Point Humidity Pressure Visibility Wind Dir Wind Speed Gust Speed Precip Events Conditions
12:33 AM 46.4 °F 45.2 °F 44.6 °F 93% 29.94 in 7.0 mi West 3.5 mph - N/A   Overcast
12:53 AM 46.9 °F - 45.0 °F 93% 29.94 in 5.0 mi West 3.5 mph - N/A   Overcast
1:02 AM 46.4 °F 44.3 °F 46.4 °F 100% 29.94 in 1.8 mi WNW 4.6 mph - N/A   Overcast
1:13 AM 46.4 °F 45.2 °F 46.4 °F 100% 29.94 in 0.8 mi Variable 3.5 mph - N/A   Mist
1:42 AM 46.4 °F 44.3 °F 46.4 °F 100% 29.94 in 0.2 mi WNW 4.6 mph - N/A Fog Fog
1:53 AM 46.9 °F - 46.0 °F 97% 29.94 in 0.2 mi West 4.6 mph - N/A Fog Fog
2:01 AM 46.4 °F 45.2 °F 46.4 °F 100% 29.94 in 0.2 mi WNW 3.5 mph - N/A Fog Fog
2:53 AM 46.0 °F 44.8 °F 45.0 °F 96% 29.94 in 0.2 mi NNW 3.5 mph - N/A Fog Fog
3:53 AM 46.0 °F - 45.0 °F 96% 29.94 in 0.2 mi Calm Calm - N/A Fog Fog
4:53 AM 45.0 °F - 45.0 °F 100% 29.95 in 0.2 mi Calm Calm - N/A Fog Fog
5:51 AM 44.6 °F - 44.6 °F 100% 29.96 in 0.2 mi Calm Calm - N/A Fog Fog
5:53 AM 45.0 °F - 44.1 °F 97% 29.96 in 0.2 mi Calm Calm - N/A Fog Fog
6:24 AM 44.6 °F 43.1 °F 42.8 °F 93% 29.97 in 0.2 mi North 3.5 mph - N/A Fog Fog
6:53 AM 44.1 °F - 44.1 °F 100% 29.99 in 0.2 mi Calm Calm - N/A Fog Fog
7:53 AM 44.1 °F - 43.0 °F 96% 30.02 in 0.2 mi Calm Calm - N/A Fog Fog
8:53 AM 44.1 °F - 44.1 °F 100% 30.03 in 0.2 mi Calm Calm - N/A Fog Fog
9:53 AM 46.0 °F 44.8 °F 45.0 °F 96% 30.05 in 0.2 mi West 3.5 mph - N/A Fog Fog
10:13 AM 46.4 °F - 44.6 °F 93% 30.05 in 0.2 mi Calm Calm - N/A Fog Fog
10:49 AM 46.4 °F - 46.4 °F 100% 30.05 in 0.8 mi Calm Calm - N/A   Mist
10:53 AM 46.9 °F - 46.0 °F 97% 30.06 in 1.0 mi Calm Calm - N/A   Overcast
11:13 AM 46.4 °F - 46.4 °F 100% 30.06 in 3.0 mi Calm Calm - N/A   Overcast
11:53 AM 53.1 °F - 46.9 °F 80% 30.04 in 10.0 mi Calm Calm - N/A   Scattered Clouds
12:53 PM 59.0 °F - 46.0 °F 62% 30.02 in 10.0 mi Calm Calm - N/A   Clear
1:53 PM 64.0 °F - 43.0 °F 46% 29.99 in 10.0 mi Calm Calm - N/A   Clear
2:53 PM 66.0 °F - 37.0 °F 34% 29.98 in 10.0 mi Calm Calm - N/A   Clear
3:53 PM 66.0 °F - 35.1 °F 32% 29.97 in 10.0 mi Calm Calm - N/A   Clear
4:53 PM 66.0 °F - 36.0 °F 33% 29.97 in 10.0 mi Calm Calm - N/A   Clear
5:53 PM 61.0 °F - 37.0 °F 41% 29.99 in 10.0 mi Calm Calm - N/A   Clear
6:53 PM 53.1 °F - 39.9 °F 61% 30.01 in 10.0 mi Calm Calm - N/A   Clear
7:53 PM 46.9 °F - 41.0 °F 80% 30.03 in 10.0 mi NE 3.5 mph - N/A   Clear
8:53 PM 48.0 °F - 42.1 °F 80% 30.05 in 10.0 mi WNW 3.5 mph - N/A   Clear
9:53 PM 46.0 °F - 39.9 °F 79% 30.06 in 10.0 mi Calm Calm - N/A   Clear
10:53 PM 44.1 °F - 39.9 °F 85% 30.07 in 10.0 mi Calm Calm - N/A   Clear
11:53 PM 41.0 °F - 37.9 °F 89% 30.06 in 10.0 mi Calm Calm - N/A   Clear